Location: Bishausen
(51.6334°N, 9.9631°E)
Time: 10:30:08
(UTC+00:00)

Cosmos 468 Rocket - Pass Details

Date: 23 May 2024
Orbit: 741 x 777 km, 74.0° (Epoch: 18 June)

Event Time Altitude Azimuth Distance (km) Brightness Sun altitude
Rises 00:39:30 0° 331° (NNW) 3,271 7.9 -15.5°
Reaches altitude 10° 00:41:59 10° 325° (NW) 2,336 7.0 -15.4°
Maximum altitude 00:47:00 44° 255° (WSW) 1,061 4.5 -15.1°
Enters shadow 00:49:52 23° 196° (SSW) 1,590 5.0 -14.9°
